sat.trackr.live / text

‹ back to catalog

STARLINK-4677

NORAD 53600 · 2022-104N

PAYLOAD ACTIVE UNKNOWN

§ Identity

Operator
Country
US
Launch date
2022-08-28
Launch site
AFETR
Launch vehicle
Mass (kg)
RCS (m²)

Purposes: comms

External: N2YO · Heavens-Above · Gunter

§ Orbital elements

Epoch: 2026-09-19T22:32:46.442688Z

Period
93.85 min
Inclination
53.1620°
Eccentricity
0.0001503
Mean motion
15.34388369 rev/d
Perigee alt
461.7 km
Apogee alt
463.8 km
Semi-major
6,840.9 km
B*
4.2882e-5
RAAN
78.5443°
Arg perigee
87.3809°
Mean anomaly
272.7365°
Rev number
22,512

§ Raw data

STARLINK-46771 53600U 22104N   26262.93942642  .00001072  00000+0  42882-4 0  99972 53600  53.1620  78.5443 0001503  87.3809 272.7365 15.34388369225122

JSON: /api/v1/satellites/53600 · /tle

For live sub-satellite position, see the globe view (requires WebGL).

§ Visibility from observer

Set your observer location to see the next 7 days of passes ≥ 10°. The values pass through the URL so the page stays shareable.

No JS? Fill the form by hand. The geolocation button needs JavaScript.